Location: *
(46.1006°N, 1.8394°E)
Time: 10:32:34
(UTC+00:00)

Cosmos 2297 Rocket - Pass Details

Date: 20 September 2019
Orbit: 841 x 842 km, 71.0° (Epoch: 13 October)

Event Time Altitude Azimuth Distance (km) Brightness Sun altitude
Rises 20:24:52 0° 221° (SW) 3,387 5.5 -25.5°
Reaches altitude 10° 20:27:23 10° 227° (SW) 2,457 4.8 -25.9°
Maximum altitude 20:32:51 50° 302° (WNW) 1,069 3.0 -26.7°
Drops below altitude 10° 20:38:21 10° 18° (NNE) 2,471 4.8 -27.5°
Sets 20:40:54 0° 24° (NNE) 3,409 5.5 -27.8°
